Location: Quaker Farms
(41.4276°N, 73.1557°W)
Time: 02:11:21
(UTC+00:00)

Altair - Pass Details

Date: 22 June 2021
Orbit: 1501 x 1682 km, 47.2° (Epoch: 23 July)

Event Time Altitude Azimuth Distance (km) Brightness Sun altitude
Rises 18:22:48 0° 253° (WSW) 4,669 10.4 64.3°
Reaches altitude 10° 18:25:49 10° 255° (WSW) 3,706 10.1 63.8°
Maximum altitude 18:35:14 75° 341° (NNW) 1,624 8.8 62.4°
Drops below altitude 10° 18:45:04 10° 67° (ENE) 3,856 9.4 60.8°
Sets 18:48:16 0° 69° (ENE) 4,866 9.8 60.3°
